User: anonymous
Location: Valley View Observatory
(41.0081°N, 76.5874°W)
Time: 10:28:59
(UTC-04:00)
Language:

Cosmos 2237 Rocket - Orbit

View from above orbital plane
View from above orbital plane
View from above satellite
View from above satellite

Ground track
Ground track

The orbit data is extracted from the following two-line orbital elements,

1 22566U 93016B   14274.59482872  .00000331  00000-0  19597-3 0  1716
2 22566 071.0102 344.0043 0010995 210.4681 149.5804 14.14853691111295
Epoch (UTC): 01 October 2014 14:16:33
Eccentricity: 0.0010995
inclination: 71.0102°
perigee height: 835 km
apogee height: 851 km
right ascension of ascending node: 344.0043°
argument of perigee: 210.4681°
revolutions per day: 14.14853691
mean anomaly at epoch: 149.5804°
orbit number at epoch: 11129

The dashed part of the orbit path shows where the satellite is in the earth's shadow,  

DLR